When you browse on this site, cookies collect data to enhance your experience and personalize the content and advertising you see.
Visit our Privacy Policy to learn more. By continuing to use the site, you agree to this use of cookies and data.
  • In Österreich
  • Länderverzeichnis
  • Für 7 Tage
  • Wassertemperatur
  • Satellitenkarten
  • Wetterkarte
  • News
  • Widgets
  • user-avatar
    Anmelden

    Stündliche Wetter Abowian

    Heute, 24 Juni, Montag

    Zeit Temperatur Niederschläge Wind Luftdruck Luftfeuchtigkeit
    00:00 +24°C° 0.1 mm 2 m/S 672 mmHg 59%
    01:00 +23°C° 0 mm 2 m/S 672 mmHg 60%
    02:00 +23°C° 0 mm 2 m/S 672 mmHg 62%
    03:00 +21°C° 0 mm 2 m/S 672 mmHg 63%
    04:00 +23°C° 0 mm 2 m/S 672 mmHg 63%
    05:00 +24°C° 0 mm 2 m/S 672 mmHg 63%
    06:00 +24°C° 0 mm 1 m/S 673 mmHg 63%
    07:00 +26°C° 0.1 mm 1 m/S 673 mmHg 58%
    08:00 +28°C° 0.1 mm 1 m/S 673 mmHg 53%
    09:00 +30°C° 0 mm 1 m/S 673 mmHg 47%
    10:00 +31°C° 0.1 mm 1 m/S 673 mmHg 43%
    11:00 +32°C° 0.1 mm 2 m/S 673 mmHg 40%
    12:00 +34°C° 0.1 mm 2 m/S 673 mmHg 37%
    13:00 +35°C° 0.1 mm 2 m/S 673 mmHg 35%
    14:00 +35°C° 0.1 mm 2 m/S 673 mmHg 33%
    15:00 +34°C° 0 mm 1 m/S 673 mmHg 31%
    16:00 +35°C° 0.1 mm 2 m/S 673 mmHg 35%
    17:00 +34°C° 0.1 mm 2 m/S 673 mmHg 40%
    18:00 +33°C° 0.1 mm 3 m/S 672 mmHg 44%
    19:00 +30°C° 0.1 mm 3 m/S 673 mmHg 48%
    20:00 +28°C° 0.1 mm 3 m/S 673 mmHg 51%
    21:00 +26°C° 0.1 mm 3 m/S 673 mmHg 55%
    22:00 +25°C° 0 mm 3 m/S 673 mmHg 57%
    23:00 +24°C° 0 mm 2 m/S 673 mmHg 58%

    Morgen, 25 Juni, Dienstag

    Zeit Temperatur Niederschläge Wind Luftdruck Luftfeuchtigkeit
    00:00 +24°C° 0 mm 2 m/S 673 mmHg 59%
    01:00 +23°C° 0 mm 2 m/S 673 mmHg 59%
    02:00 +23°C° 0 mm 2 m/S 672 mmHg 60%
    03:00 +21°C° 0 mm 2 m/S 672 mmHg 60%
    04:00 +23°C° 0 mm 2 m/S 673 mmHg 59%
    05:00 +24°C° 0 mm 2 m/S 673 mmHg 59%
    06:00 +24°C° 0 mm 1 m/S 673 mmHg 58%
    07:00 +26°C° 0 mm 1 m/S 673 mmHg 54%
    08:00 +28°C° 0 mm 1 m/S 673 mmHg 49%
    09:00 +30°C° 0 mm 1 m/S 674 mmHg 45%
    10:00 +31°C° 0.1 mm 1 m/S 674 mmHg 41%
    11:00 +32°C° 0.1 mm 1 m/S 674 mmHg 38%
    12:00 +33°C° 0.1 mm 1 m/S 674 mmHg 35%
    13:00 +34°C° 0.2 mm 1 m/S 674 mmHg 34%
    14:00 +34°C° 0.2 mm 1 m/S 674 mmHg 33%
    15:00 +35°C° 0.2 mm 1 m/S 674 mmHg 32%
    16:00 +35°C° 0.1 mm 2 m/S 674 mmHg 35%
    17:00 +34°C° 0.1 mm 3 m/S 673 mmHg 38%
    18:00 +34°C° 0.1 mm 4 m/S 673 mmHg 41%
    19:00 +32°C° 0 mm 4 m/S 673 mmHg 45%
    20:00 +29°C° 0 mm 3 m/S 673 mmHg 48%
    21:00 +27°C° 0 mm 3 m/S 674 mmHg 51%
    22:00 +26°C° 0 mm 3 m/S 673 mmHg 53%
    23:00 +25°C° 0 mm 2 m/S 673 mmHg 54%

    übermorgen, 26 Juni, Mittwoch

    Zeit Temperatur Niederschläge Wind Luftdruck Luftfeuchtigkeit
    00:00 +24°C° 0 mm 2 m/S 673 mmHg 56%
    01:00 +24°C° 0 mm 2 m/S 673 mmHg 57%
    02:00 +23°C° 0 mm 2 m/S 673 mmHg 58%
    03:00 +23°C° 0 mm 2 m/S 673 mmHg 58%
    04:00 +24°C° 0 mm 2 m/S 673 mmHg 57%
    05:00 +24°C° 0 mm 2 m/S 673 mmHg 57%
    06:00 +25°C° 0 mm 1 m/S 673 mmHg 56%
    07:00 +27°C° 0 mm 1 m/S 674 mmHg 51%
    08:00 +28°C° 0 mm 1 m/S 674 mmHg 46%
    09:00 +30°C° 0 mm 1 m/S 674 mmHg 41%
    10:00 +31°C° 0.1 mm 1 m/S 674 mmHg 39%
    11:00 +33°C° 0.1 mm 1 m/S 674 mmHg 36%
    12:00 +34°C° 0.1 mm 1 m/S 674 mmHg 34%
    13:00 +34°C° 0.1 mm 1 m/S 674 mmHg 33%
    14:00 +36°C° 0.1 mm 2 m/S 674 mmHg 32%
    15:00 +36°C° 0.1 mm 2 m/S 673 mmHg 31%
    16:00 +35°C° 0.2 mm 3 m/S 673 mmHg 35%
    17:00 +34°C° 0.2 mm 4 m/S 672 mmHg 39%
    18:00 +33°C° 0.2 mm 4 m/S 672 mmHg 44%
    19:00 +29°C° 0.4 mm 4 m/S 672 mmHg 50%
    20:00 +27°C° 0.4 mm 3 m/S 672 mmHg 57%
    21:00 +24°C° 0.4 mm 2 m/S 672 mmHg 63%
    22:00 +24°C° 0.2 mm 2 m/S 672 mmHg 63%
    23:00 +24°C° 0.2 mm 2 m/S 672 mmHg 63%

    27 Juni, Donnerstag

    Zeit Temperatur Niederschläge Wind Luftdruck Luftfeuchtigkeit
    00:00 +24°C° 0.2 mm 2 m/S 672 mmHg 63%
    01:00 +23°C° 0.2 mm 2 m/S 672 mmHg 65%
    02:00 +22°C° 0.2 mm 1 m/S 671 mmHg 67%
    03:00 +22°C° 0.2 mm 1 m/S 671 mmHg 68%
    04:00 +22°C° 0.3 mm 1 m/S 671 mmHg 68%
    05:00 +23°C° 0.3 mm 1 m/S 671 mmHg 67%
    06:00 +23°C° 0.3 mm 1 m/S 671 mmHg 66%
    07:00 +25°C° 0.1 mm 1 m/S 671 mmHg 61%
    08:00 +26°C° 0.1 mm 1 m/S 671 mmHg 55%
    09:00 +28°C° 0.1 mm 1 m/S 672 mmHg 49%
    10:00 +29°C° 0.3 mm 1 m/S 671 mmHg 46%
    11:00 +31°C° 0.3 mm 1 m/S 671 mmHg 43%
    12:00 +32°C° 0.3 mm 1 m/S 671 mmHg 39%
    13:00 +32°C° 0.2 mm 1 m/S 671 mmHg 38%
    14:00 +33°C° 0.2 mm 1 m/S 670 mmHg 37%
    15:00 +33°C° 0.2 mm 1 m/S 670 mmHg 36%
    16:00 +34°C° 0.2 mm 2 m/S 670 mmHg 39%
    17:00 +33°C° 0.2 mm 3 m/S 670 mmHg 43%
    18:00 +32°C° 0.2 mm 4 m/S 669 mmHg 46%
    19:00 +29°C° 0.6 mm 3 m/S 669 mmHg 51%
    20:00 +27°C° 0.6 mm 3 m/S 669 mmHg 57%
    21:00 +25°C° 0.6 mm 3 m/S 669 mmHg 62%
    22:00 +24°C° 0.3 mm 2 m/S 669 mmHg 65%
    23:00 +24°C° 0.3 mm 2 m/S 668 mmHg 68%

    28 Juni, Freitag

    Zeit Temperatur Niederschläge Wind Luftdruck Luftfeuchtigkeit
    00:00 +23°C° 0.3 mm 2 m/S 668 mmHg 71%
    01:00 +21°C° 0.4 mm 2 m/S 668 mmHg 72%
    02:00 +21°C° 0.4 mm 2 m/S 668 mmHg 73%
    03:00 +20°C° 0.4 mm 2 m/S 667 mmHg 74%
    04:00 +21°C° 0.5 mm 2 m/S 667 mmHg 74%
    05:00 +21°C° 0.5 mm 2 m/S 667 mmHg 73%
    06:00 +22°C° 0.5 mm 1 m/S 667 mmHg 72%
    07:00 +24°C° 0.2 mm 1 m/S 667 mmHg 67%
    08:00 +25°C° 0.2 mm 1 m/S 667 mmHg 61%
    09:00 +27°C° 0.2 mm 1 m/S 667 mmHg 55%
    10:00 +28°C° 0.3 mm 1 m/S 667 mmHg 51%
    11:00 +30°C° 0.3 mm 1 m/S 667 mmHg 47%
    12:00 +31°C° 0.3 mm 2 m/S 667 mmHg 43%
    13:00 +32°C° 0.5 mm 2 m/S 666 mmHg 41%
    14:00 +32°C° 0.5 mm 2 m/S 666 mmHg 39%
    15:00 +34°C° 0.5 mm 2 m/S 666 mmHg 37%
    16:00 +29°C° 3.1 mm 2 m/S 666 mmHg 50%
    17:00 +25°C° 3.1 mm 2 m/S 665 mmHg 64%
    18:00 +21°C° 3.1 mm 3 m/S 665 mmHg 77%
    19:00 +21°C° 0.7 mm 2 m/S 665 mmHg 78%
    20:00 +20°C° 0.7 mm 2 m/S 666 mmHg 80%
    21:00 +20°C° 0.7 mm 2 m/S 666 mmHg 81%
    22:00 +21°C° 0 mm 1 m/S 666 mmHg 80%
    23:00 +21°C° 0 mm 1 m/S 666 mmHg 79%

    29 Juni, Samstag

    Zeit Temperatur Niederschläge Wind Luftdruck Luftfeuchtigkeit
    00:00 +21°C° 0 mm 1 m/S 666 mmHg 78%
    01:00 +20°C° 0 mm 1 m/S 666 mmHg 79%
    02:00 +20°C° 0 mm 1 m/S 666 mmHg 80%
    03:00 +17°C° 0 mm 0 m/S 665 mmHg 80%
    04:00 +18°C° 0 mm 0 m/S 666 mmHg 77%
    05:00 +19°C° 0 mm 0 m/S 666 mmHg 73%
    06:00 +19°C° 0 mm 0 m/S 666 mmHg 70%
    07:00 +23°C° 0 mm 1 m/S 666 mmHg 65%
    08:00 +24°C° 0 mm 1 m/S 666 mmHg 61%
    09:00 +25°C° 0 mm 1 m/S 666 mmHg 56%
    10:00 +27°C° 0.2 mm 1 m/S 666 mmHg 53%
    11:00 +28°C° 0.2 mm 2 m/S 666 mmHg 49%
    12:00 +29°C° 0.2 mm 2 m/S 666 mmHg 45%
    13:00 +30°C° 0.4 mm 2 m/S 666 mmHg 43%
    14:00 +30°C° 0.4 mm 2 m/S 665 mmHg 40%
    15:00 +31°C° 0.4 mm 2 m/S 665 mmHg 38%
    16:00 +30°C° 0.4 mm 2 m/S 665 mmHg 42%
    17:00 +29°C° 0.4 mm 3 m/S 665 mmHg 46%
    18:00 +28°C° 0.4 mm 4 m/S 665 mmHg 50%
    19:00 +26°C° 1.1 mm 3 m/S 665 mmHg 59%
    20:00 +24°C° 1.1 mm 3 m/S 665 mmHg 68%
    21:00 +21°C° 1.1 mm 3 m/S 665 mmHg 77%
    22:00 +20°C° 0.6 mm 2 m/S 665 mmHg 77%
    23:00 +20°C° 0.6 mm 2 m/S 665 mmHg 78%
    Mehr zeigen